[TLELIST] Archives

 

Current TLEs

April 8th 2007 PDT

HST 1 20580U 90037B 07095.02968663 .00000553 00000-0 30218-4 0 8445 2 20580 028.4680 307.1711 0003464 041.3743 318.7107 15.00217966728960 ISS (ZARYA) 1 25544U 98067A 07098.48201731 .00016367 00000-0 94810-4 0 9810 2 25544 051.6346 104.1185 0015947 045.0019 091.4956 15.78591116479763 CXO 1 25867U 99040B 07098.33333333 .00000433 00000-0 00000+0 0 550 2 25867 061.4727 090.8175 6133451 285.2591 280.3679 00.37805173 1990 ____________________________________________________________________ These 2-Line ...Continue Reading

Current TLEs

April 7th 2007 PDT

HST 1 20580U 90037B 07095.02968663 .00000553 00000-0 30218-4 0 8445 2 20580 028.4680 307.1711 0003464 041.3743 318.7107 15.00217966728960 ISS (ZARYA) 1 25544U 98067A 07097.46892755 .00017708 00000-0 10237-3 0 9752 2 25544 051.6334 109.3544 0016053 040.5991 094.7521 15.78561243479609 CXO 1 25867U 99040B 07096.29166667 .00000411 00000-0 00000+0 0 542 2 25867 061.4626 090.8468 6129419 285.3083 002.3920 00.37805156 1980 ____________________________________________________________________ These 2-Line ...Continue Reading

Current TLEs

April 6th 2007 PDT

HST 1 20580U 90037B 07094.96316038 +.00000553 +00000-0 +30218-4 0 08530 2 20580 028.4680 307.6048 0003464 040.6680 319.4168 15.00217914728957 ISS (ZARYA) 1 25544U 98067A 07 96.43226362 .00018676 00000-0 10397-3 0 9700 2 25544 051.6320 114.7205 0016107 035.8509 324.4101 15.78524665479446 CXO 1 25867U 99040B 07096.29166667 .00000411 00000-0 00000+0 0 542 2 25867 061.4626 090.8468 6129419 285.3083 002.3920 00.37805156 1980 ____________________________________________________________________ These 2-Line ...Continue Reading

Current TLEs

April 5th 2007 PDT

HST 1 20580U 90037B 07095.02968663 .00000553 00000-0 30218-4 0 8445 2 20580 028.4680 307.1711 0003464 041.3743 318.7107 15.00217966728960 ISS (ZARYA) 1 25544U 98067A 07095.44584390 .00018791 00000-0 10871-3 0 9635 2 25544 051.6340 119.8196 0016104 032.5138 118.5024 15.78490888479289 CXO 1 25867U 99040B 07096.29166667 .00000411 00000-0 00000+0 0 542 2 25867 061.4626 090.8468 6129419 285.3083 002.3920 00.37805156 1980 ____________________________________________________________________ These 2-Line ...Continue Reading

Current TLEs

April 4th 2007 PDT

HST 1 20580U 90037B 07093.89873990 .00000533 00000-0 28626-4 0 8433 2 20580 028.4682 314.5452 0003458 028.3824 331.6957 15.00216966728791 ISS (ZARYA) 1 25544U 98067A 07094.48834007 .00023866 00000-0 13712-3 0 9569 2 25544 051.6334 124.7685 0016023 029.1526 077.1677 15.78460659479134 CXO 1 25867U 99040B 07093.62500000 .00000373 00000-0 00000+0 0 535 2 25867 061.4470 090.8836 6125369 285.3767 359.2990 00.37805889 1978 ____________________________________________________________________ These 2-Line ...Continue Reading

Current TLEs

April 3rd 2007 PDT

HST 1 20580U 90037B 07091.96947527 +.00000512 +00000-0 +26968-4 0 08598 2 20580 028.4683 327.1224 0003464 007.0208 353.0432 15.00215449728506 ISS (ZARYA) 1 25544U 98067A 07093.48146306 .00026736 00000-0 15343-3 0 9501 2 25544 051.6334 129.9738 0015823 024.8706 116.1298 15.78415689478976 CXO 1 25867U 99040B 07093.62500000 .00000373 00000-0 00000+0 0 535 2 25867 061.4470 090.8836 6125369 285.3767 359.2990 00.37805889 1978 ____________________________________________________________________ These 2-Line ...Continue Reading

Current TLEs

April 2nd 2007 PDT

HST 1 20580U 90037B 07091.96947527 .00000512 00000-0 26968-4 0 8420 2 20580 028.4683 327.1224 0003464 007.0208 353.0432 15.00215449728506 ISS (ZARYA) 1 25544U 98067A 07092.46842008 .00021101 00000-0 12234-3 0 9440 2 25544 051.6330 135.2121 0015938 020.1780 120.6018 15.78350759478815 CXO 1 25867U 99040B 07091.00000000 .00000325 00000-0 00000+0 0 526 2 25867 061.4327 090.9287 6122673 285.4386 001.8694 00.37805796 1960 ____________________________________________________________________ These 2-Line ...Continue Reading

Current TLEs

April 1st 2007 PDT

HST 1 20580U 90037B 07090.90505231 .00000511 00000-0 26914-4 0 8414 2 20580 028.4685 334.0616 0003466 354.9517 005.1036 15.00214714728340 ISS (ZARYA) 1 25544U 98067A 07091.45419692 .00022660 00000-0 13132-3 0 9390 2 25544 051.6312 140.4486 0015499 017.5026 116.6010 15.78316213478658 CXO 1 25867U 99040B 07091.00000000 .00000325 00000-0 00000+0 0 526 2 25867 061.4327 090.9287 6122673 285.4386 001.8694 00.37805796 1960 ____________________________________________________________________ These 2-Line ...Continue Reading

Current TLEs

March 31st 2007 PDT

HST 1 20580U 90037B 07089.10883764 .00000515 00000-0 27251-4 0 8402 2 20580 028.4685 345.7708 0003472 335.3216 024.7210 15.00213492728070 ISS (ZARYA) 1 25544U 98067A 07090.43111818 .00025657 00000-0 14831-3 0 9325 2 25544 051.6315 145.7426 0015838 013.0905 064.1090 15.78278631478495 CXO 1 25867U 99040B 07091.00000000 .00000325 00000-0 00000+0 0 526 2 25867 061.4327 090.9287 6122673 285.4386 001.8694 00.37805796 1960 ____________________________________________________________________ These 2-Line ...Continue Reading

Current TLEs

March 30th 2007 PDT

HST 1 20580U 90037B 07089.10883764 .00000515 00000-0 27251-4 0 8402 2 20580 028.4685 345.7708 0003472 335.3216 024.7210 15.00213492728070 ISS (ZARYA) 1 25544U 98067A 07089.48260944 .00027255 00000-0 15758-3 0 9250 2 25544 051.6316 150.6445 0016053 009.0661 075.3240 15.78230245478340 CXO 1 25867U 99040B 07088.29166667 .00000262 00000-0 00000+0 0 514 2 25867 061.4231 090.9881 6119229 285.4965 353.0978 00.37803858 1953 ____________________________________________________________________ These 2-Line ...Continue Reading
  • This mailing list is a public mailing list - anyone may join or leave, at any time.
  • This mailing list is announce-only.

International Space Station (ISS) / Hubble Space Telescope (HST) / Chandra X-Ray Observatory Orbital Data via EMAIL

Privacy Policy:

Private list